[[{"header":{"parameterUnit":"m.s-1","parameterCategory":1,"la1":30.2992,"la2":30.254,"lo1":-89.0895,"lo2":-89.0443,"dy":0.0025,"dx":0.0025,"nx":19,"ny":19,"refTime":"2026-05-17T21:00:00:Z","depth":0,"parameterNumber":2,"parameterNumberName":"U-component_of_WINDS"},"data":[0,0,0,-5.2277,-5.2281,-5.2444,-5.2445,-5.2661,-5.2663,0,0,0,0,0,0,0,0,0,0,0,-5.2235,-5.2237,-5.2277,-5.2281,-5.2444,-5.2445,-5.2661,-5.2663,0,0,0,0,0,0,0,0,0,0,0,-5.2234,-5.2236,-5.2238,-5.2282,-5.2444,-5.2445,-5.2661,-5.2534,0,0,0,0,0,0,0,0,0,0,-5.2375,-5.2341,-5.2236,-5.2238,-5.2283,-5.2444,-5.2445,-5.2528,-5.2542,-5.2591,0,-5.2637,0,-5.2654,-5.2679,-5.2679,0,0,0,-5.2277,-5.233,-5.2369,-5.2239,-5.2285,-5.2443,-5.2369,-5.2536,-5.2552,-5.261,-5.264,-5.2648,-5.2658,-5.268,-5.2681,-5.298,-5.2982,0,0,-5.2268,-5.2267,-5.2358,-5.2379,-5.2355,-5.2364,-5.2374,-5.2545,-5.2578,-5.2641,-5.2653,-5.2661,-5.2681,-5.2683,-5.2979,-5.2981,0,0,0,-5.2245,-5.2261,-5.2295,-5.2371,-5.2399,-5.2369,-5.2381,-5.257,-5.2582,-5.2655,-5.2664,-5.2683,-5.2686,-5.2977,-5.2979,-5.3056,0,0,0,-5.2239,-5.2248,-5.2292,-5.2293,-5.2396,-5.2487,-5.2402,-5.257,-5.2589,-5.2663,-5.2683,-5.2688,-5.2975,-5.2978,-5.305,-5.3092,0,0,0,-5.2222,-5.2246,-5.2271,-5.2293,-5.2363,-5.2484,-5.2505,-5.2574,-5.2595,-5.2679,-5.2688,-5.2974,-5.2978,-5.3045,-5.3083,-5.3169,0,0,0,-5.2204,-5.2339,-5.2273,-5.2427,-5.2362,-5.2532,-5.2504,-5.2631,-5.2713,-5.2684,-5.2975,-5.2979,-5.3044,-5.3078,-5.3163,-5.3238,-5.327,0,0,-5.2373,-5.2359,-5.245,-5.2395,-5.2577,-5.2507,-5.27,-5.2776,-5.2785,-5.2914,-5.2922,-5.3052,-5.3083,-5.3167,-5.3455,-5.3481,0,0,0,-5.2503,-5.2568,-5.2616,-5.2695,-5.2756,-5.2812,-5.2859,-5.2887,-5.2997,-5.2852,-5.3108,-5.3126,-5.3176,-5.3211,-5.3233,-5.3274,-5.2997,-5.2996,-5.2996,-5.274,-5.2745,-5.2894,-5.2918,-5.2995,-5.3042,-5.3103,-5.3149,-5.3132,-5.3192,-5.3229,-5.3404,-5.3446,-5.3462,-5.3505,-5.3272,-5.3272,-5.3273,-5.3273,-5.2987,-5.3078,-5.3052,-5.3187,-5.3191,-5.3304,-5.3355,-5.3339,-5.3444,-5.3376,-5.342,-5.3342,-5.349,-5.3527,-5.3279,-5.3278,-5.3277,-5.3276,-5.3276,-5.314,-5.3184,-5.3217,-5.333,-5.3417,-5.3437,-5.3539,-5.354,-5.3541,-5.3585,-5.3623,-5.3621,-5.3617,-5.3604,-5.3604,-5.3605,-5.3605,-5.3606,-5.3606,-5.3284,-5.3319,-5.3405,-5.3482,-5.3532,-5.3598,-5.3647,-5.3696,-5.375,-5.3742,-5.3742,-5.3717,-5.3505,-5.3449,-5.3615,-5.3614,-5.3613,-5.3612,-5.3611,-5.3527,-5.3472,-5.3605,-5.3655,-5.3745,-5.383,-5.3831,-5.3931,-5.3971,-5.4022,-5.3988,-5.3832,-5.3817,-5.3799,-5.3753,-5.3988,-5.3988,-5.3988,-5.3988,-5.3654,-5.3647,-5.3782,-5.3862,-5.3941,-5.3954,-5.4103,-5.4143,-5.4175,-5.4201,-5.4168,-5.4108,-5.409,-5.4085,-5.4062,-5.4019,-5.4316,-5.4316,-5.4317,-5.3802,-5.3803,-5.3929,-5.396,-5.4031,-5.4091,-5.4231,-5.4322,-5.4348,-5.433,-5.422,-5.4206,-5.4109,-5.4078,-5.4053,-5.4017,-5.3938,0,0]},{"header":{"parameterUnit":"m.s-1","parameterCategory":1,"la1":30.2992,"la2":30.254,"lo1":-89.0895,"lo2":-89.0443,"dy":0.0025,"dx":0.0025,"nx":19,"ny":19,"refTime":"2026-05-17T21:00:00:Z","depth":0,"parameterNumber":3,"parameterNumberName":"V-component_of_WINDS"},"data":[0,0,0,2.7608,2.7609,2.7669,2.7669,2.7751,2.7752,0,0,0,0,0,0,0,0,0,0,0,2.7595,2.7595,2.7608,2.7609,2.7669,2.7669,2.7751,2.7752,0,0,0,0,0,0,0,0,0,0,0,2.7594,2.7595,2.7596,2.761,2.7668,2.7669,2.775,2.7703,0,0,0,0,0,0,0,0,0,0,2.7645,2.7637,2.7595,2.7596,2.761,2.7668,2.7669,2.7701,2.7706,2.7727,0,2.7747,0,2.7751,2.7757,2.7758,0,0,0,2.7606,2.7632,2.7645,2.7596,2.7611,2.7668,2.7641,2.7704,2.771,2.7734,2.7748,2.7751,2.7752,2.7758,2.7759,2.7892,2.7893,0,0,2.7602,2.7607,2.7641,2.7649,2.7641,2.7639,2.7643,2.7707,2.7723,2.7748,2.7753,2.7753,2.7759,2.7759,2.7892,2.7893,0,0,0,2.7596,2.7605,2.7616,2.7646,2.7656,2.7641,2.7645,2.772,2.7723,2.7754,2.7754,2.7759,2.776,2.7891,2.7892,2.7937,0,0,0,2.7593,2.7601,2.7614,2.7618,2.7655,2.7689,2.7656,2.7718,2.7725,2.7754,2.7759,2.7761,2.789,2.7891,2.7934,2.7957,0,0,0,2.7589,2.7601,2.7611,2.7618,2.7644,2.7688,2.7694,2.772,2.7726,2.7758,2.7761,2.7889,2.7891,2.7931,2.7952,2.7995,0,0,0,2.7586,2.7649,2.7612,2.7682,2.7644,2.7715,2.7694,2.7746,2.7779,2.776,2.789,2.7892,2.793,2.795,2.7992,2.8031,2.8048,0,0,2.7668,2.7658,2.77,2.7668,2.7748,2.7706,2.7792,2.7816,2.7814,2.7866,2.7869,2.7935,2.7952,2.7994,2.8141,2.8154,0,0,0,2.7727,2.7757,2.7777,2.7809,2.783,2.785,2.7861,2.7871,2.7915,2.7842,2.7961,2.7971,2.7996,2.8014,2.8026,2.8047,2.7901,2.79,2.79,2.7849,2.7845,2.7913,2.7916,2.7947,2.7959,2.7984,2.7999,2.7983,2.8012,2.8027,2.8117,2.8139,2.8147,2.8169,2.8047,2.8047,2.8048,2.8048,2.7968,2.801,2.7991,2.805,2.8045,2.8094,2.8109,2.8097,2.8142,2.8104,2.8125,2.8085,2.8162,2.8181,2.8051,2.805,2.805,2.805,2.8049,2.8048,2.8067,2.8079,2.8126,2.8163,2.8164,2.8209,2.8202,2.8196,2.8217,2.8233,2.8232,2.8231,2.8225,2.8225,2.8226,2.8226,2.8226,2.8226,2.8126,2.8137,2.8177,2.8206,2.8227,2.8253,2.8267,2.8287,2.8307,2.8299,2.8299,2.8282,2.8171,2.8143,2.8231,2.823,2.823,2.8229,2.8229,2.8249,2.822,2.8281,2.8302,2.8337,2.8375,2.8367,2.8408,2.8424,2.8446,2.8425,2.8344,2.8334,2.8325,2.8302,2.8426,2.8426,2.8426,2.8426,2.8316,2.8311,2.8373,2.8407,2.844,2.8439,2.8508,2.852,2.8528,2.8537,2.8518,2.8488,2.8478,2.8474,2.8461,2.844,2.8596,2.8596,2.8596,2.8392,2.839,2.845,2.8459,2.8486,2.851,2.8575,2.8615,2.8618,2.8603,2.8545,2.8537,2.8488,2.8472,2.8455,2.8436,2.8396,0,0]}]]